GAOFEN-1 04

Last updated on Wed Jul 02 2025 00:02:30 GMT+0000 (Coordinated Universal Time)

1 43262U 18031D 25182.61192635 .00000585 00000+0 90776-4 0 9991 2 43262 97.7719 243.1439 0003699 84.4603 275.7029 14.76601787390952
UTC large
Height (km)
Speed (km/s)
/
Latitude / Longitude
Inclination (degrees)
Orbital Period (minutes)
Azimuth
Elevation
Range (km)
Doppler Factor

Next 0 passes for location: London (51.5072 / 0.1276)

Sorry there are no passes over London.